GFSSW_250_spd_069.txt.gz
Wind_Speed
59 57 57 57 56 55 53 51 52 55 55 54 53 52 52 59 58 56 59 66 67 70 72 72 69 69 62 64 65 62 62 61 61 59 55 56 56 53 50 50 51 50 49 47 47
53 54 52 50 50 52 55 54 53 56 56 58 57 56 57 57 60 56 63 64 66 69 72 74 74 68 71 64 65 65 65 65 63 63 61 59 57 57 55 54 53 54 52 51 51
47 47 49 51 54 56 57 60 63 61 64 65 62 60 59 61 60 63 62 64 62 67 70 73 75 75 70 68 65 66 68 68 67 65 64 63 62 60 59 58 58 56 57 56 55
49 50 54 57 58 60 63 64 65 69 71 69 69 68 67 66 66 60 63 63 63 64 68 70 73 76 76 72 68 67 70 71 69 68 66 65 65 64 63 63 63 60 60 61 61
56 57 58 60 63 65 67 70 71 72 73 75 76 74 71 69 69 69 69 66 64 64 65 70 71 73 75 77 72 68 70 72 72 71 69 67 67 65 65 65 64 63 64 64 63
60 62 62 64 65 67 69 72 75 77 78 79 79 80 78 72 80 74 74 72 66 65 66 65 70 71 72 71 74 71 67 69 72 73 71 70 69 68 67 67 67 69 68 67 66
53 55 57 60 64 69 71 73 76 79 81 82 83 83 80 83 86 79 77 75 71 69 67 69 65 69 69 67 70 71 71 69 68 73 73 72 71 71 70 69 68 68 69 70 70
53 56 59 62 65 67 71 74 77 78 79 81 85 87 84 89 86 84 83 81 76 74 72 70 69 68 68 69 67 66 67 66 68 69 69 72 73 70 71 71 70 71 71 70 69
48 51 56 59 63 69 72 75 77 78 80 82 83 84 88 89 89 89 86 85 81 78 76 75 73 70 67 66 64 64 63 62 63 60 66 70 57 54 55 61 66 68 69 70 71
47 51 54 59 63 63 63 62 62 64 68 73 81 89 89 91 92 91 89 87 81 81 81 78 75 71 68 67 63 61 62 59 58 58 59 69 72 74 74 70 70 69 67 66 65
47 50 54 57 54 49 45 41 42 44 49 56 66 74 87 95 93 94 93 91 85 80 81 83 79 72 68 67 69 65 61 60 59 56 54 62 69 76 74 74 69 70 69 66 62
48 50 57 54 47 40 34 30 30 33 38 44 50 60 72 84 96 96 93 91 85 80 80 82 81 78 74 70 67 67 65 63 60 60 56 57 66 73 75 74 76 73 70 68 68
49 52 58 52 46 40 34 25 19 20 26 36 43 49 60 71 83 94 97 94 88 84 78 79 85 80 75 71 69 67 68 66 64 63 61 63 63 65 65 74 73 74 76 79 81
49 52 56 51 47 44 37 27 16 12 16 23 32 40 50 61 70 80 93 98 92 85 83 82 76 79 77 73 71 70 70 69 67 67 68 68 67 69 67 71 72 74 76 77 79
48 52 54 50 45 41 36 27 15 7 6 13 24 34 41 48 59 69 81 93 95 91 87 83 82 78 77 75 73 69 73 72 70 68 70 73 73 74 74 74 74 75 75 77 79
46 50 52 48 42 37 30 21 12 5 2 10 19 27 35 42 50 56 66 78 88 93 91 86 84 82 77 76 73 71 74 74 71 69 67 70 73 75 71 70 70 71 71 75 77
43 48 49 45 39 35 25 17 11 5 7 11 16 21 28 36 42 48 57 65 75 85 89 91 88 86 82 78 74 72 75 74 72 69 68 67 69 69 74 76 77 77 77 76 77
40 45 46 42 34 30 20 12 8 6 11 13 19 21 24 30 36 41 47 55 60 65 71 78 81 80 77 75 72 72 74 74 70 70 67 67 67 66 70 71 72 74 77 79 82
36 40 43 39 30 25 16 8 5 8 14 16 21 20 21 26 31 36 42 47 53 58 63 67 68 70 70 70 70 71 72 73 69 69 68 67 67 66 70 70 71 73 75 78 80
32 36 37 35 26 21 12 6 5 8 17 18 21 28 25 26 29 34 40 44 48 53 57 59 62 63 65 66 67 70 72 70 68 68 69 70 70 68 73 73 73 76 79 81 83
28 31 32 31 25 16 10 6 8 6 14 18 20 24 26 24 27 33 37 43 47 48 50 50 52 55 57 59 62 65 68 68 68 69 70 72 72 72 75 76 78 81 83 85 88
25 27 27 27 21 12 7 3 10 12 9 11 18 22 23 30 32 31 41 42 41 40 40 41 44 46 49 53 57 62 65 67 68 68 72 74 75 76 78 80 82 84 87 89 92
24 24 24 22 17 11 4 2 6 12 14 14 15 18 23 23 29 27 24 32 34 35 35 37 39 41 43 47 52 59 64 67 69 70 74 76 77 78 81 83 86 88 90 93 97
25 24 23 16 13 8 1 4 7 9 15 16 17 18 19 19 20 21 23 29 32 35 35 35 37 39 40 43 46 52 58 64 69 72 74 77 79 78 83 84 87 91 94 97 100
30 26 23 16 10 5 2 4 8 10 14 17 20 18 17 18 19 20 21 25 30 34 35 36 38 40 42 44 46 49 52 57 62 67 70 75 77 81 82 86 88 92 96 98 99
35 31 25 19 13 9 6 6 7 9 13 16 17 19 19 18 18 18 19 20 23 27 31 34 37 40 43 45 47 49 52 55 58 63 67 71 75 80 83 86 88 90 93 96 97
39 35 28 24 18 13 11 12 11 11 11 12 14 15 15 16 16 16 16 18 21 24 27 30 33 36 39 42 45 48 51 52 56 60 64 68 72 77 80 82 85 88 92 97 101

GFSSW_250_spd_072.txt.gz
Wind_Speed
76 77 77 76 77 79 81 78 70 65 61 60 60 61 62 61 56 58 54 59 59 65 65 68 68 68 70 68 65 65 62 62 61 62 60 60 58 56 55 53 51 49 48 47 47
75 77 79 81 80 72 69 67 65 63 62 61 60 61 61 62 59 55 66 57 60 61 62 66 69 69 68 70 64 66 65 65 65 61 61 63 61 60 58 56 54 53 53 51 50
50 51 52 55 58 60 63 64 64 63 63 61 61 59 63 63 63 59 57 65 61 60 63 61 67 69 70 70 64 66 67 70 66 66 65 65 64 64 62 59 58 57 57 54 55
49 51 51 53 55 57 57 58 59 59 59 60 63 61 63 66 66 59 61 61 65 63 62 66 66 67 69 67 69 63 68 70 68 69 70 67 66 66 65 62 62 60 58 61 60
52 55 59 62 63 63 63 64 65 66 67 68 68 67 67 65 66 68 67 67 64 67 64 62 65 66 67 70 68 68 66 69 67 71 72 68 67 66 67 66 66 64 64 63 65
57 60 63 64 65 68 69 72 74 75 75 75 74 73 71 70 80 76 74 71 68 66 68 66 63 63 65 66 64 66 64 66 67 71 72 71 68 69 69 68 68 68 67 68 69
55 57 59 60 61 63 65 69 74 78 81 82 81 80 77 79 85 80 75 75 72 69 69 66 66 64 63 66 65 64 60 62 69 69 69 70 69 72 68 72 70 69 71 69 70
50 54 57 58 60 62 64 68 74 77 79 80 81 81 80 86 86 85 85 82 78 75 74 72 68 63 62 62 65 67 64 59 61 64 68 68 69 68 69 71 71 73 71 70 71
43 46 49 52 54 57 61 67 72 74 75 76 76 77 82 86 88 89 86 87 84 79 77 76 72 68 64 62 63 67 67 65 60 60 62 65 68 65 65 67 67 52 54 67 72
39 43 45 47 50 54 60 66 69 71 72 72 72 72 74 79 85 87 88 87 88 85 80 77 75 71 65 62 60 63 66 67 64 61 63 60 58 47 51 59 68 65 66 56 47
44 44 46 48 51 57 56 54 55 54 58 59 61 63 71 80 83 87 90 89 88 87 83 79 76 70 67 66 66 67 66 65 66 61 59 59 57 59 51 47 62 66 69 69 70
45 47 48 49 53 57 54 49 41 39 38 43 48 54 59 68 83 86 87 90 89 84 84 85 77 74 73 73 72 70 66 66 65 60 61 58 57 59 65 63 58 65 66 72 77
47 51 52 50 56 58 54 46 35 30 29 31 35 40 49 58 69 84 87 89 91 89 85 84 79 79 78 74 71 71 66 68 66 63 63 57 58 60 62 56 56 55 62 65 72
46 51 53 51 57 57 53 43 38 29 22 19 22 29 38 45 55 69 84 89 87 88 88 84 78 79 77 72 76 76 73 70 64 65 65 62 62 60 57 57 57 63 66 68 67
44 50 53 50 57 57 51 42 38 27 19 11 12 19 28 38 45 56 74 86 88 87 88 83 82 80 79 74 76 76 74 74 70 66 65 63 64 69 62 67 58 65 66 69 72
42 46 52 49 55 55 49 41 37 25 18 11 3 9 19 29 38 48 58 73 86 88 86 82 80 81 79 76 75 75 79 77 72 68 65 70 65 66 64 72 75 78 77 77 79
39 42 48 47 52 52 46 39 32 21 15 11 7 2 10 18 29 40 49 60 74 86 87 82 81 80 79 77 73 71 77 78 76 73 71 70 68 64 69 72 73 77 80 83 84
35 39 46 43 48 47 42 36 28 16 12 11 12 10 6 13 20 31 40 50 61 71 82 86 84 80 77 75 72 69 69 74 74 74 71 70 71 69 71 72 71 73 75 78 82
31 36 43 42 44 43 39 32 23 13 8 10 15 14 10 12 16 21 29 37 47 58 70 81 84 83 78 76 74 71 69 70 70 71 71 71 70 69 71 73 73 74 75 78 80
31 32 38 39 40 39 33 28 19 11 5 10 16 15 12 12 13 18 23 30 37 45 55 65 75 80 81 77 73 72 72 73 71 71 72 73 71 67 72 75 75 77 78 80 82
31 30 34 36 36 36 29 24 17 9 4 8 16 13 10 12 13 15 20 22 27 35 42 50 60 70 77 78 76 75 75 74 73 71 70 71 71 69 70 75 77 79 81 83 85
32 30 29 32 32 32 23 19 13 7 4 6 13 10 14 16 13 10 15 21 25 28 34 40 45 51 58 64 66 68 67 68 66 63 66 68 70 69 70 74 77 80 84 86 89
33 30 27 29 28 28 19 16 10 4 1 3 10 15 13 19 12 18 20 19 21 25 29 32 35 37 38 41 46 50 52 53 55 58 62 64 66 69 72 76 78 81 85 89 92
35 32 28 27 27 23 17 11 9 5 4 6 11 18 19 21 20 15 14 20 24 24 22 22 24 26 29 33 34 38 42 46 50 54 57 62 64 70 72 78 80 83 87 90 94
36 35 30 26 25 20 16 7 6 6 6 8 11 12 17 13 14 19 14 14 18 21 21 23 24 26 28 29 30 34 37 41 45 48 51 57 60 64 66 71 76 80 84 87 89
36 37 32 27 27 22 16 5 1 4 7 11 14 12 13 14 16 16 14 14 17 19 21 23 23 24 26 28 31 34 37 39 42 46 49 53 57 61 65 68 72 75 80 85 88
39 39 37 34 31 26 19 11 9 4 7 11 14 16 14 14 14 17 16 14 15 15 18 20 23 24 26 27 30 34 37 40 42 45 48 52 56 61 64 68 73 76 81 84 90

GFSSW_250_spd_078.txt.gz
Wind_Speed
68 70 71 71 69 70 71 72 74 75 73 70 71 66 68 65 64 59 60 61 61 60 64 65 66 70 70 71 69 66 66 66 64 63 61 58 62 59 62 59 58 61 61 57 52
58 63 65 68 72 73 74 73 72 74 71 73 71 67 67 72 70 69 67 69 67 69 71 72 66 68 68 70 71 69 69 71 67 64 64 60 60 63 63 59 62 61 57 59 59
47 58 59 63 64 68 69 68 74 76 78 79 82 82 79 86 80 79 78 79 81 81 80 71 65 66 65 67 67 69 69 69 71 64 66 68 63 60 64 63 63 63 62 61 61
42 44 47 49 51 53 56 56 58 62 65 68 71 72 78 79 88 93 89 90 84 83 75 69 66 63 65 63 63 66 68 68 70 68 67 68 69 67 64 66 69 65 64 67 65
46 48 51 52 53 54 57 59 60 61 64 66 68 70 72 72 73 71 71 74 72 69 69 68 68 65 66 64 64 61 64 67 63 66 68 69 70 68 68 67 66 65 68 66 64
40 40 40 41 41 44 46 50 54 59 63 67 71 74 76 74 77 76 68 70 71 71 70 69 68 68 69 67 65 61 63 67 67 66 66 67 68 69 71 68 66 66 68 72 69
39 39 40 39 41 43 45 46 46 50 55 59 65 71 75 76 81 82 76 72 71 71 73 71 73 70 71 70 67 62 60 62 66 63 63 60 63 62 58 64 69 68 68 70 69
44 44 45 46 46 48 49 49 48 50 53 60 64 67 71 73 75 79 77 78 77 74 72 74 75 72 70 70 70 64 61 61 59 60 60 63 62 63 62 61 66 71 72 71 69
48 47 47 48 50 51 53 52 54 54 58 62 66 68 67 64 67 71 71 78 78 80 76 75 72 68 69 68 69 68 59 59 60 59 59 58 56 59 62 64 64 65 65 67 68
51 51 49 48 48 49 54 55 57 56 63 62 64 67 69 66 61 61 63 72 75 82 84 77 70 69 67 65 63 59 63 60 61 63 62 59 61 61 60 59 62 64 65 67 66
48 50 49 50 51 51 54 54 56 58 61 59 55 55 52 53 56 54 59 64 68 77 83 81 74 66 62 61 67 63 61 66 67 66 67 66 63 61 65 64 67 65 66 65 65
42 43 47 50 50 52 53 54 55 58 60 55 49 47 43 42 45 45 52 60 67 72 81 81 72 69 69 63 68 69 68 64 65 66 64 64 66 67 65 64 63 65 65 62 61
48 48 42 39 46 49 51 51 52 54 52 51 45 38 32 31 32 35 44 57 66 70 72 75 78 77 73 71 70 71 68 64 64 65 66 65 65 66 64 65 67 70 66 62 63
52 49 46 39 36 38 44 47 49 50 48 45 39 36 29 23 24 29 36 50 62 71 71 72 80 80 75 74 72 72 70 66 66 67 66 68 65 65 64 64 66 67 63 60 58
55 56 50 44 35 36 40 42 43 45 46 42 37 33 29 20 17 21 30 43 57 68 70 71 73 78 78 75 75 73 70 68 70 70 70 67 64 67 64 65 68 67 64 65 65
59 56 52 50 34 34 38 38 39 44 46 42 37 31 23 15 11 13 22 34 48 60 68 69 73 73 77 77 73 73 71 71 73 73 69 68 69 65 65 67 67 68 67 66 66
63 61 54 48 39 32 36 37 39 45 44 40 38 30 18 13 5 6 15 26 38 50 64 70 71 72 73 77 77 77 74 76 76 73 65 70 67 65 68 70 70 70 68 68 70
63 63 59 50 45 35 36 36 37 44 42 39 36 26 18 11 5 5 12 18 31 43 56 67 70 72 75 75 75 77 78 79 77 73 75 72 65 65 65 67 69 69 70 72 75
61 63 62 56 44 38 33 34 35 40 40 35 28 20 17 13 8 1 8 13 24 38 49 67 78 77 75 75 75 74 77 79 77 76 73 71 70 66 68 70 71 71 72 76 79
62 60 62 59 47 42 32 31 32 37 37 33 26 16 13 16 12 6 9 10 16 29 41 56 71 73 71 71 71 71 74 76 77 75 73 70 68 67 67 68 68 69 71 72 74
61 60 62 63 52 43 31 30 29 32 33 32 22 15 13 19 16 9 14 11 12 21 31 41 55 65 68 69 67 67 67 70 73 73 72 69 66 66 65 65 68 70 71 71 70
57 61 62 60 56 43 35 28 28 29 29 28 23 16 10 10 12 14 12 16 13 14 19 25 36 50 62 67 68 66 65 66 66 67 68 65 62 63 63 65 67 69 70 71 73
61 56 62 61 58 51 38 28 26 24 30 23 22 17 9 5 8 5 8 13 12 12 16 17 23 32 43 56 64 68 66 65 64 63 62 62 61 62 63 65 66 68 70 72 75
60 59 60 62 58 53 40 30 22 25 24 23 18 19 10 3 4 9 10 13 14 8 12 12 12 16 25 36 47 55 61 64 65 63 61 60 62 63 65 66 68 71 73 74 72
62 62 63 62 62 55 45 30 26 22 26 23 17 17 12 1 7 10 8 7 11 12 11 12 12 10 10 16 23 30 40 49 55 58 59 61 62 62 62 61 62 63 61 60 61
65 67 65 67 62 58 46 32 28 21 28 21 20 14 13 6 8 13 10 9 9 7 9 10 12 12 12 14 15 17 20 24 27 31 34 36 39 41 43 44 46 50 53 59 63
63 65 66 66 63 60 49 36 29 27 25 25 19 11 14 12 10 10 12 12 13 16 15 15 12 14 14 14 15 15 15 16 18 20 21 23 26 31 36 41 45 49 54 61 65

GFSSW_250_spd_081.txt.gz
Wind_Speed
68 66 70 69 69 70 71 75 78 76 76 78 78 79 78 77 75 76 75 68 64 60 57 61 63 63 64 62 64 64 64 65 66 63 61 60 60 61 57 60 58 59 58 57 55
69 65 65 68 66 69 73 73 76 77 77 77 77 77 77 81 79 76 73 69 64 64 63 59 60 64 63 62 62 61 63 69 71 68 65 61 63 63 61 59 58 58 58 57 58
41 46 48 60 60 60 61 63 68 74 74 76 76 77 81 81 83 77 77 75 75 69 69 69 64 60 61 62 58 62 60 67 72 72 69 68 65 65 64 65 62 61 59 56 59
42 42 44 45 48 50 52 55 60 63 63 69 71 73 75 80 82 84 82 81 79 75 74 75 74 68 67 67 69 67 69 67 68 72 72 71 70 68 67 68 67 63 59 63 62
41 43 45 48 50 52 54 56 57 58 59 61 63 65 68 70 71 74 78 83 85 87 83 83 84 78 76 75 76 78 73 69 70 72 69 69 71 72 70 66 69 67 64 62 62
41 42 42 43 45 47 49 50 50 51 52 54 57 60 65 71 75 75 73 77 79 79 83 84 85 88 89 85 83 72 69 63 65 67 60 65 66 69 71 70 68 70 71 69 66
47 47 47 47 49 50 52 53 52 52 53 55 56 59 61 62 66 69 72 80 81 79 80 78 77 79 75 75 72 67 67 63 58 58 58 54 61 66 66 68 69 69 72 72 68
35 44 48 50 53 54 54 54 55 56 56 56 57 62 64 68 72 73 69 74 76 82 84 81 79 74 68 70 68 67 67 64 62 57 53 51 54 52 58 65 66 67 67 71 73
25 28 29 38 49 55 56 56 57 57 58 60 62 66 69 69 73 75 77 75 70 74 86 87 81 75 69 69 68 65 61 61 64 62 58 53 55 58 57 56 59 62 62 63 65
33 31 30 34 33 40 50 54 54 54 59 62 65 68 71 72 70 73 72 70 62 65 78 83 82 78 70 64 63 61 61 61 63 64 59 57 56 56 62 61 58 59 61 62 63
44 42 37 31 35 34 36 44 53 52 57 61 64 65 63 67 68 62 60 64 60 61 70 76 76 74 72 65 63 66 65 64 66 68 62 59 59 59 56 57 60 60 58 63 66
56 53 47 38 36 34 30 32 42 47 52 57 60 60 66 62 55 52 49 50 49 58 68 68 64 70 73 71 64 63 63 62 64 67 67 65 62 63 60 58 57 58 58 58 60
54 59 54 46 40 38 31 28 32 37 45 51 55 57 54 49 43 39 38 41 42 51 64 61 61 68 70 70 65 58 56 57 63 68 68 68 64 63 63 63 63 63 63 62 63
58 61 63 58 48 42 35 29 29 35 43 50 53 46 42 38 34 30 28 31 36 46 56 59 62 64 68 69 64 60 61 62 59 65 66 66 65 65 63 62 65 66 65 65 66
54 59 65 66 57 47 42 32 29 34 43 46 46 44 39 37 31 25 23 22 31 42 51 60 66 64 68 68 69 68 65 64 58 60 67 64 59 62 62 63 67 66 63 64 66
58 59 59 64 63 56 46 40 31 33 42 48 44 44 42 36 30 22 18 18 27 36 45 57 63 61 65 68 72 70 67 63 64 62 62 64 62 63 62 66 66 65 65 66 66
59 60 63 63 64 60 52 46 33 33 39 45 44 45 44 37 25 18 13 14 21 30 41 50 60 62 65 67 69 71 67 67 67 62 59 63 63 63 66 67 66 66 67 66 66
58 62 63 63 65 63 57 48 38 33 37 44 42 42 40 35 26 14 9 10 16 25 36 45 53 62 61 63 66 69 70 68 66 64 63 68 63 63 67 67 66 67 67 68 68
57 61 64 64 67 65 59 52 43 33 34 40 40 39 40 33 24 16 7 5 13 21 31 39 49 59 62 61 64 66 69 70 68 67 68 66 63 64 66 67 67 66 66 67 68
55 58 61 63 66 68 64 55 47 32 33 35 40 37 36 32 24 19 6 3 10 21 30 41 49 56 62 63 62 63 64 68 69 73 70 67 66 66 68 68 68 67 68 70 71
55 55 59 62 65 64 66 58 49 35 32 34 37 35 31 33 23 20 8 6 6 13 21 33 44 51 64 65 64 64 64 64 66 70 67 67 67 70 71 70 70 70 72 72 72
52 54 56 59 60 61 64 63 54 42 29 31 35 36 28 25 20 18 10 6 6 9 19 23 32 42 53 60 62 61 61 63 63 64 63 63 64 67 68 70 70 71 72 72 71
52 54 55 56 58 59 61 63 55 46 31 29 30 34 28 22 13 10 13 9 9 8 10 16 22 29 38 49 59 62 64 61 60 61 59 58 59 60 60 63 65 66 67 67 69
52 52 55 55 57 58 59 60 60 50 39 27 27 29 30 19 11 6 8 8 10 9 7 12 17 21 26 34 44 53 57 58 57 57 55 53 56 58 59 60 61 63 65 66 68
53 53 53 58 55 57 58 58 60 57 42 32 26 25 29 21 11 7 4 12 8 6 7 13 13 16 17 21 28 35 42 50 54 55 56 58 59 59 59 60 61 63 65 67 69
51 51 53 55 54 56 56 58 57 61 48 37 26 26 25 23 15 10 8 6 10 8 7 7 8 12 12 12 14 19 24 29 36 41 46 50 53 53 54 55 55 55 52 50 50
52 52 53 56 55 56 55 57 56 58 56 42 30 25 22 21 17 13 12 11 9 9 6 7 10 10 12 12 14 16 17 18 20 22 25 28 29 31 31 31 33 36 39 44 50

GFSSW_250_spd_084.txt.gz
Wind_Speed
74 75 76 76 77 75 76 77 77 75 75 77 71 72 71 72 72 72 75 77 77 76 77 78 77 72 66 62 62 63 57 55 56 60 63 60 59 57 63 62 60 58 56 56 56
55 60 62 66 67 67 68 70 70 72 74 76 76 75 78 74 78 77 75 75 75 79 80 77 73 70 66 65 62 62 57 56 62 63 63 59 61 63 60 63 63 65 60 57 56
40 41 43 45 45 47 53 55 64 65 62 65 70 75 79 78 77 79 80 82 80 79 78 77 77 73 65 63 58 60 59 62 64 64 63 62 63 64 64 60 65 64 63 62 60
38 40 42 45 47 48 48 49 49 50 53 57 63 68 68 74 78 83 84 84 83 84 83 84 81 76 69 66 67 59 61 66 67 67 61 59 60 66 66 69 67 62 63 64 64
39 41 42 43 45 46 47 49 49 50 51 52 55 58 62 67 69 71 77 81 82 86 87 90 87 84 78 76 75 64 62 67 65 64 62 61 56 54 65 70 71 67 64 64 67
36 39 41 46 49 52 52 51 51 51 51 51 51 52 52 53 53 60 68 72 74 75 78 81 88 90 84 81 79 73 71 70 70 65 63 60 58 57 62 66 71 71 67 66 67
22 24 28 33 39 48 54 56 56 56 55 55 55 56 57 58 59 59 61 64 65 68 73 80 78 83 87 86 86 81 77 75 72 71 70 64 62 55 59 63 64 68 69 68 71
26 26 24 29 33 35 40 49 56 59 61 59 60 60 59 61 64 66 68 68 66 68 70 72 73 78 75 79 85 87 83 79 77 78 73 69 56 50 50 52 56 57 65 67 69
37 37 37 32 30 35 40 43 48 49 55 62 61 62 62 63 66 69 69 72 70 70 73 75 74 73 74 78 77 78 78 80 82 81 78 72 59 54 50 49 48 51 56 64 64
48 43 46 47 39 35 37 40 38 38 42 45 54 58 61 63 66 67 69 70 70 71 75 77 73 73 73 69 72 73 68 67 72 76 76 67 61 54 55 53 56 57 58 56 55
49 53 53 52 50 43 39 38 33 25 33 35 41 47 52 57 58 62 63 64 64 66 69 72 69 65 73 74 73 79 71 64 64 68 68 60 58 57 57 54 53 57 59 59 59
52 53 54 60 57 51 45 38 34 26 25 28 30 35 42 49 55 57 60 59 57 56 55 56 56 62 64 68 69 76 73 65 60 63 66 63 55 57 61 59 57 55 56 59 59
52 53 57 57 59 59 54 44 38 30 27 28 33 35 41 45 49 49 50 46 43 46 44 42 49 55 60 63 65 70 72 67 61 60 64 65 62 58 59 56 56 58 58 56 54
50 53 57 59 59 61 62 52 40 33 27 30 33 37 40 41 39 39 36 33 30 32 33 37 44 49 58 60 62 66 71 69 62 61 66 66 62 62 63 61 57 60 60 60 59
48 53 55 58 60 61 63 64 48 41 29 32 32 39 44 42 35 34 31 27 23 23 24 30 40 48 57 60 62 67 68 69 68 64 63 64 62 60 61 62 62 63 64 61 60
49 50 53 57 60 63 64 66 58 46 38 35 37 41 45 41 38 36 32 27 23 17 17 26 36 46 57 59 59 63 69 71 70 63 55 59 58 57 59 63 64 63 62 61 61
52 50 52 56 59 62 64 65 71 56 45 38 41 44 45 43 40 36 30 25 22 14 11 21 33 44 56 56 58 63 69 68 65 55 47 55 48 51 58 62 64 63 64 65 65
52 52 52 54 57 61 63 65 67 69 53 41 42 45 46 46 39 36 31 23 18 10 9 18 28 42 51 52 55 60 63 62 60 55 53 57 48 54 58 62 62 62 62 62 62
51 54 52 53 56 59 62 64 65 68 63 48 41 44 45 46 42 33 30 21 14 6 7 17 28 38 48 50 50 55 56 58 58 57 56 54 53 58 59 59 60 60 61 61 62
48 52 54 53 56 57 59 61 63 64 65 54 42 41 44 45 41 35 30 18 12 6 8 20 26 37 46 50 48 49 55 54 56 58 58 56 57 60 61 59 59 60 61 62 64
47 50 53 52 52 55 56 59 59 62 64 59 47 38 41 42 41 33 27 21 10 7 5 14 21 31 41 49 50 48 51 53 54 57 59 59 61 62 61 60 59 60 61 62 64
45 47 51 52 51 52 54 57 59 59 60 61 50 39 35 39 38 34 25 19 12 4 2 5 13 25 37 47 53 51 49 50 52 55 55 59 64 61 60 59 60 62 63 65 67
47 48 52 52 53 51 53 55 55 57 59 58 56 41 33 34 35 29 23 14 11 8 3 1 5 8 29 41 50 54 53 52 53 53 52 53 57 57 59 60 62 62 63 63 65
49 48 53 53 53 52 53 55 55 56 56 58 59 44 32 28 31 25 21 12 7 8 5 1 6 11 20 24 35 47 53 54 52 51 50 50 52 53 53 54 55 57 59 60 60
52 49 50 52 54 53 52 52 54 55 56 55 56 57 34 25 27 26 18 12 5 3 5 1 5 9 14 20 26 33 42 48 51 52 52 51 52 52 52 53 53 54 55 57 59
50 50 51 50 50 49 50 54 56 53 54 53 54 53 44 27 23 25 20 12 8 6 1 3 7 9 9 15 18 25 31 36 42 47 51 53 55 54 55 55 55 56 58 57 56
51 51 49 48 49 47 52 54 54 53 52 51 52 53 55 32 23 23 21 15 13 8 3 4 3 8 10 13 11 13 19 23 28 32 37 41 42 44 46 45 43 41 39 38 39